TimeCST,TemperatureF,Dew PointF,Humidity,Sea Level PressureIn,VisibilityMPH,Wind Direction,Wind SpeedMPH,Gust SpeedMPH,PrecipitationIn,Events,Conditions,WindDirDegrees,DateUTC
12:00 AM,67,66,95,30.14,12,NW,3.5,,,Rain,Light Rain,310,2014-01-19 06:00:00
3:00 AM,67,66,94,30.12,12,NW,6.9,,,Rain,Light Rain,320,2014-01-19 09:00:00
5:00 AM,66.2,64.4,94,30.12,6.2,NW,4.6,-,N/A,Rain,Light Rain,320,2014-01-19 11:00:00
6:00 AM,66,65,97,30.14,12,WNW,3.5,,,Rain,Light Rain,290,2014-01-19 12:00:00
6:00 AM,66.2,66.2,100,30.12,6.2,WNW,3.5,-,N/A,,Mostly Cloudy,290,2014-01-19 12:00:00
7:00 AM,66.2,66.2,100,30.15,6.2,Calm,Calm,-,N/A,,Mostly Cloudy,0,2014-01-19 13:00:00
8:00 AM,68.0,66.2,94,30.18,6.2,West,3.5,-,N/A,,Mostly Cloudy,270,2014-01-19 14:00:00
9:00 AM,69,67,91,30.23,12,West,3.5,,,,Partly Cloudy,270,2014-01-19 15:00:00
9:00 AM,68.0,66.2,94,30.22,6.2,West,3.5,-,N/A,,Mostly Cloudy,270,2014-01-19 15:00:00
10:00 AM,71.6,68.0,88,30.22,6.2,NW,6.9,-,N/A,,Mostly Cloudy,310,2014-01-19 16:00:00
11:00 AM,75.2,68.0,78,30.20,6.2,NNW,6.9,-,N/A,,Mostly Cloudy,340,2014-01-19 17:00:00
12:00 PM,78,68,63,30.18,14,NNE,6.9,,,,Mostly Cloudy,30,2014-01-19 18:00:00
12:00 PM,78.8,68.0,69,30.17,6.2,NNE,6.9,-,N/A,,Mostly Cloudy,30,2014-01-19 18:00:00
1:00 PM,80.6,66.2,61,30.15,6.2,NE,9.2,-,N/A,,Mostly Cloudy,40,2014-01-19 19:00:00
2:00 PM,77.0,64.4,65,30.10,6.2,NNW,9.2,-,N/A,,Mostly Cloudy,330,2014-01-19 20:00:00
3:00 PM,79,68,62,30.12,14,ENE,8.1,,,,Partly Cloudy,60,2014-01-19 21:00:00
3:00 PM,78.8,68.0,69,30.11,6.2,ENE,8.1,-,N/A,,Partly Cloudy,60,2014-01-19 21:00:00
4:00 PM,78.8,68.0,69,30.11,6.2,NE,8.1,-,N/A,,Partly Cloudy,50,2014-01-19 22:00:00
5:00 PM,75.2,68.0,78,30.12,6.2,NE,11.5,-,N/A,,Scattered Clouds,50,2014-01-19 23:00:00
6:00 PM,73,69,83,30.14,12,ENE,9.2,,,Rain,Light Rain Showers,60,2014-01-20 00:00:00
6:00 PM,73.4,69.8,88,30.13,6.2,ENE,9.2,-,N/A,Rain,Light Rain Showers,60,2014-01-20 00:00:00
9:00 PM,73,67,78,29.91,12,ENE,11.5,,,Rain,Light Rain Showers,60,2014-01-20 03:00:00